Simultaneous Nadir Overpasses (SNOs) Predictions

Prediction of SNOs between GOES-15 and FY3D Satellite Orbit:

Table of predicted SNOs for the next 14.0 days since TLE Epoch: 8/21/2021
Index Date Time (GOES-15) GOES-15 Lat,Lon FY3D Lat,Lon Distance(km) Time Diff (sec)
1 08/21/2021 10:26:24 -0.26,-128.29 0.55,-131.91 413.27 80
2 08/22/2021 10:10:06 -0.26,-128.30 -0.45,-127.32 111.10 80
3 08/23/2021 22:29:01 0.27,-128.22 -0.71,-132.52 490.63 80
4 08/24/2021 22:12:44 0.27,-128.23 0.35,-127.94 33.55 80
5 08/27/2021 10:12:34 -0.27,-128.33 -0.23,-128.53 22.42 80
6 08/29/2021 22:15:10 0.28,-128.26 0.07,-129.14 100.85 80
7 08/30/2021 21:58:53 0.28,-128.26 1.13,-124.55 422.42 80
8 09/01/2021 10:17:41 -0.30,-128.34 -0.00,-129.74 159.34 80
9 09/02/2021 10:01:23 -0.29,-128.33 -1.01,-125.14 363.79 80
10 09/03/2021 22:22:58 0.31,-128.25 -0.15,-130.35 239.16 80
